Torna al catalogo

CZ-6A DEB

AttivoPO
NORAD 54938·DEBRIS·🇨🇳 China

Lanciato Nov 11, 2022 da Taiyuan Satellite Launch Center

Loading…

Prossimi Passaggi (prossime 24 ore)

TLE

AggiornatoSource: Space-Track

Epoca: Sep 12, 2026, 11:02 UTC

1 54938U 22151SB  26255.45974707  .00012277  00000-0  11222-2 0  9992
2 54938  99.1524  71.2478 0060497   3.2659 356.8939 14.93800335204006

Traccia CZ-6A DEB in tempo reale con AllMySat

Download on the App Store